KC3ZFY-W Weather Reports


time (UTC)temp
F
wind
direction
speed
knots
gust
knots
rain 1hr
in
rain 24hr
in
rain mn
in
humidity
%
barometer
mb
20260504110506 48 186 0.0 1.7 0.00 0.00 0.00 71 1015.4
20260504100503 48 185 0.0 0.0 0.00 0.00 0.00 73 1015.2
20260504082004 45 263 0.0 1.7 0.00 0.00 0.00 80 1015.5
20260504081525 45 262 0.0 1.7 0.00 0.00 0.00 81 1015.5
20260504081013 44 231 0.0 0.9 0.00 0.00 0.00 81 1015.5
20260504080508 44 235 0.0 0.0 0.00 0.00 0.00 81 1015.4
20260504050503 41 224 0.0 0.0 0.00 0.00 0.00 80 1015.8
20260504050022 41 224 0.0 0.0 0.00 0.00 0.00 80 1015.8
20260504045507 40 224 0.0 0.0 0.00 0.00 0.00 79 1015.7
20260504045009 41 224 0.0 0.0 0.00 0.00 0.00 79 1015.7
20260504044522 41 224 0.0 0.0 0.00 0.00 0.00 79 1015.8
20260504044010 41 224 0.0 0.0 0.00 0.00 0.00 79 1015.8
20260504043509 41 224 0.0 0.0 0.00 0.00 0.00 78 1015.7
20260504043024 41 224 0.0 0.0 0.00 0.00 0.00 78 1015.6
20260504042508 41 224 0.0 0.0 0.00 0.00 0.00 78 1015.6
20260504042010 41 224 0.0 0.0 0.00 0.00 0.00 77 1015.6
20260504041527 41 224 0.0 0.0 0.00 0.00 0.00 75 1015.7
20260504041004 41 224 0.0 0.0 0.00 0.00 0.00 75 1015.7
20260504040503 41 224 0.0 0.0 0.00 0.00 0.00 75 1015.7
20260504040035 41 224 0.0 0.0 0.00 0.00 0.00 75 1015.7
20260504035508 42 224 0.0 0.0 0.00 0.00 0.00 75 1015.7
20260504035008 42 225 0.0 0.0 0.00 0.00 0.00 75 1015.6
20260504034523 42 224 0.0 0.0 0.00 0.00 0.00 75 1015.6
20260504034004 42 224 0.0 0.0 0.00 0.00 0.00 74 1015.6
20260504033508 42 224 0.0 0.0 0.00 0.00 0.00 74 1015.5
20260504033026 42 224 0.0 0.0 0.00 0.00 0.00 74 1015.6
20260504032503 42 225 0.0 0.0 0.00 0.00 0.00 72 1015.5
20260504032005 43 224 0.0 0.0 0.00 0.00 0.00 71 1015.5
20260504031510 43 224 0.0 0.0 0.00 0.00 0.00 71 1015.5
20260504031004 43 224 0.0 0.0 0.00 0.00 0.00 70 1015.4
20260504030503 43 224 0.0 0.0 0.00 0.00 0.00 70 1015.4
20260504030013 43 224 0.0 0.0 0.00 0.00 0.00 69 1015.3
20260504025504 44 224 0.0 0.0 0.00 0.00 0.00 69 1015.4
20260504025006 44 224 0.0 0.0 0.00 0.00 0.00 68 1015.3
20260504024514 44 224 0.0 0.9 0.00 0.00 0.00 68 1015.3
20260504024004 44 224 0.0 0.9 0.00 0.00 0.00 67 1015.4
20260504023502 45 179 0.0 0.0 0.00 0.00 0.00 66 1015.2
20260504023006 45 179 0.0 0.0 0.00 0.00 0.00 64 1015.1
20260504022504 45 179 0.0 0.0 0.00 0.00 0.00 63 1015.2
20260504022002 46 179 0.0 0.0 0.00 0.00 0.00 63 1015.3
20260504021504 46 179 0.0 0.0 0.00 0.00 0.00 62 1015.3
20260504021005 46 179 0.0 0.0 0.00 0.00 0.00 61 1015.2
20260504020504 46 179 0.0 0.0 0.00 0.00 0.00 60 1015.2
20260504020011 47 179 0.0 0.0 0.00 0.00 0.00 60 1015.1
20260504015505 47 179 0.0 0.0 0.00 0.00 0.00 60 1015.1
20260504015007 47 179 0.0 0.0 0.00 0.00 0.00 59 1015.1
20260504014522 48 179 0.0 0.0 0.00 0.00 0.00 58 1015.0
20260504014006 48 179 0.0 0.0 0.00 0.00 0.00 56 1015.0
20260504013505 48 179 0.0 0.0 0.00 0.00 0.00 56 1015.0
20260504013017 49 179 0.0 0.0 0.00 0.00 0.00 55 1015.0
20260504012502 49 179 0.0 0.0 0.00 0.00 0.00 54 1015.0
20260504012004 50 179 0.0 0.0 0.00 0.00 0.00 53 1014.9
20260504011504 50 179 0.0 0.0 0.00 0.00 0.00 51 1014.9
20260504011003 51 179 0.0 0.0 0.00 0.00 0.00 50 1014.8
20260504010503 51 179 0.0 0.0 0.00 0.00 0.00 50 1014.8
20260504010009 52 179 0.0 0.0 0.00 0.00 0.00 49 1014.8
20260504005504 52 179 0.0 0.0 0.00 0.00 0.00 49 1014.8
20260504005005 53 179 0.0 0.0 0.00 0.00 0.00 48 1014.8
20260504004514 53 179 0.0 0.0 0.00 0.00 0.00 46 1014.7
20260504004005 53 179 0.0 0.0 0.00 0.00 0.00 44 1014.8
20260504003507 54 179 0.0 0.0 0.00 0.00 0.00 43 1014.7
20260504003018 55 179 0.0 0.0 0.00 0.00 0.00 42 1014.6
20260504002506 55 179 0.0 0.0 0.00 0.00 0.00 40 1014.5
20260504002005 56 179 0.0 0.0 0.00 0.00 0.00 40 1014.4
20260504001518 56 179 0.0 0.0 0.00 0.00 0.00 39 1014.4
20260504001002 57 179 0.0 0.0 0.00 0.00 0.00 38 1014.4
20260504000504 57 179 0.0 0.0 0.00 0.00 0.00 37 1014.4
20260504000007 58 179 0.0 0.9 0.00 0.00 0.00 36 1014.3
20260503235502 58 179 0.0 1.7 0.00 0.00 0.00 35 1014.3
20260503235005 59 238 0.0 1.7 0.00 0.00 0.00 35 1014.3
20260503234510 59 289 0.0 0.0 0.00 0.00 0.00 34 1014.2
20260503234003 59 289 0.0 1.7 0.00 0.00 0.00 33 1014.1
20260503233503 60 289 0.0 1.7 0.00 0.00 0.00 34 1014.1
20260503233020 60 284 0.0 1.7 0.00 0.00 0.00 32 1014.1
20260503232507 60 5 0.0 2.6 0.00 0.00 0.00 32 1014.1
20260503232008 60 173 0.0 7.0 0.00 0.00 0.00 31 1014.0
20260503231518 61 289 2.6 7.0 0.00 0.00 0.00 30 1014.0
20260503231007 61 276 0.0 4.3 0.00 0.00 0.00 31 1014.0
20260503230508 61 36 0.9 4.3 0.00 0.00 0.00 30 1014.0
20260503230003 62 289 1.7 3.5 0.00 0.00 0.00 29 1014.0
20260503225503 62 330 0.0 6.1 0.00 0.00 0.00 28 1014.0
20260503225004 62 263 1.7 6.1 0.00 0.00 0.00 28 1014.0
20260503224509 62 5 0.9 10.4 0.00 0.00 0.00 28 1014.1
20260503224003 62 105 0.9 10.4 0.00 0.00 0.00 28 1014.1
20260503223503 62 14 1.7 6.1 0.00 0.00 0.00 29 1014.1
20260503223014 63 34 1.7 7.0 0.00 0.00 0.00 28 1014.1
20260503222503 63 250 2.6 7.0 0.00 0.00 0.00 30 1014.0
20260503222008 63 296 2.6 7.8 0.00 0.00 0.00 27 1014.0
20260503221518 63 327 0.0 9.6 0.00 0.00 0.00 29 1014.1
20260503221009 62 250 1.7 9.6 0.00 0.00 0.00 28 1014.1
20260503220508 63 44 5.2 9.6 0.00 0.00 0.00 27 1014.2
20260503220020 63 331 2.6 12.2 0.00 0.00 0.00 28 1014.2
20260503215507 63 34 1.7 12.2 0.00 0.00 0.00 27 1014.2
20260503215006 63 298 2.6 12.2 0.00 0.00 0.00 28 1014.3
20260503214507 63 280 2.6 12.2 0.00 0.00 0.00 28 1014.2
20260503214002 63 13 1.7 10.4 0.00 0.00 0.00 27 1014.2
20260503213508 63 298 5.2 10.4 0.00 0.00 0.00 27 1014.1
20260503213017 63 352 2.6 9.6 0.00 0.00 0.00 27 1014.1
20260503212503 63 360 1.7 11.3 0.00 0.00 0.00 27 1014.1
20260503212008 63 9 2.6 11.3 0.00 0.00 0.00 28 1014.1
20260503211517 64 298 3.5 11.3 0.00 0.00 0.00 29 1014.2
20260503211011 63 5 2.6 14.8 0.00 0.00 0.00 27 1014.2
20260503210508 64 325 4.3 14.8 0.00 0.00 0.00 28 1014.2
20260503210022 63 259 0.9 9.6 0.00 0.00 0.00 30 1014.1
20260503205512 63 215 1.7 9.6 0.00 0.00 0.00 28 1014.1
20260503205007 63 315 3.5 10.4 0.00 0.00 0.00 28 1014.2
20260503204527 63 14 3.5 10.4 0.00 0.00 0.00 28 1014.3
20260503204016 63 301 3.5 11.3 0.00 0.00 0.00 29 1014.2
20260503203503 63 225 3.5 11.3 0.00 0.00 0.00 28 1014.3
20260503203013 62 93 3.5 13.0 0.00 0.00 0.00 29 1014.4
20260503202506 62 285 6.1 13.0 0.00 0.00 0.00 29 1014.4
20260503202010 62 203 2.6 16.5 0.00 0.00 0.00 29 1014.4
20260503201514 62 18 4.3 16.5 0.00 0.00 0.00 30 1014.5
20260503201003 62 287 3.5 10.4 0.00 0.00 0.00 31 1014.5
20260503200507 62 313 5.2 12.2 0.00 0.00 0.00 30 1014.6
20260503200020 61 9 5.2 12.2 0.00 0.00 0.00 30 1014.8
20260503195507 61 17 0.9 7.0 0.00 0.00 0.00 32 1014.7
20260503195010 61 57 1.7 9.6 0.00 0.00 0.00 30 1014.8
20260503194524 62 352 2.6 10.4 0.00 0.00 0.00 30 1015.0
20260503194008 62 325 2.6 10.4 0.00 0.00 0.00 30 1015.1
20260503193510 62 254 2.6 13.0 0.00 0.00 0.00 32 1015.1
20260503193036 62 292 3.5 13.0 0.00 0.00 0.00 30 1015.1
20260503192502 62 15 1.7 12.2 0.00 0.00 0.00 32 1015.1
20260503192005 61 298 4.3 12.2 0.00 0.00 0.00 33 1015.2
20260503191510 61 360 5.2 13.0 0.00 0.00 0.00 32 1015.2
20260503191010 61 52 5.2 13.0 0.00 0.00 0.00 32 1015.4
20260503190503 61 344 2.6 8.7 0.00 0.00 0.00 31 1015.5
20260503190016 61 331 1.7 8.7 0.00 0.00 0.00 31 1015.4
20260503185509 61 21 2.6 13.0 0.00 0.00 0.00 31 1015.5
20260503185008 61 198 6.1 13.0 0.00 0.00 0.00 30 1015.4
20260503184525 61 277 3.5 13.0 0.00 0.00 0.00 31 1015.5
20260503184010 61 296 4.3 13.0 0.00 0.00 0.00 32 1015.5
20260503183507 60 229 1.7 7.8 0.00 0.00 0.00 32 1015.7
20260503183025 60 352 1.7 8.7 0.00 0.00 0.00 32 1015.7
20260503182509 60 311 2.6 9.6 0.00 0.00 0.00 31 1015.7
20260503182012 60 276 3.5 11.3 0.00 0.00 0.00 32 1016.0
20260503181526 60 9 4.3 11.3 0.00 0.00 0.00 33 1015.9
20260503181003 60 56 2.6 12.2 0.00 0.00 0.00 32 1015.8
20260503180506 60 33 1.7 12.2 0.00 0.00 0.00 32 1015.8
20260503180018 60 347 4.3 9.6 0.00 0.00 0.00 32 1016.0
20260503175510 59 44 2.6 13.9 0.00 0.00 0.00 32 1015.8
20260503175006 58 352 4.3 13.9 0.00 0.00 0.00 34 1015.8
20260503174519 58 278 6.1 13.9 0.00 0.00 0.00 34 1016.0
20260503174006 58 279 7.8 13.9 0.00 0.00 0.00 33 1016.1
20260503173506 59 65 3.5 13.9 0.00 0.00 0.00 33 1016.1
20260503173025 59 26 3.5 13.9 0.00 0.00 0.00 34 1016.1
20260503172510 59 299 3.5 8.7 0.00 0.00 0.00 32 1015.9
20260503172010 58 329 2.6 11.3 0.00 0.00 0.00 33 1016.1
20260503171526 57 316 2.6 15.6 0.00 0.00 0.00 34 1016.1
20260503171008 57 352 2.6 15.6 0.00 0.00 0.00 33 1016.2
20260503170511 58 9 1.7 11.3 0.00 0.00 0.00 32 1016.3
20260503151008 54 275 4.3 10.4 0.00 0.00 0.00 36 1016.8
20260503150508 54 196 2.6 10.4 0.00 0.00 0.00 37 1016.8
20260503131012 49 321 3.5 11.3 0.00 0.00 0.00 47 1017.2
20260503130507 49 319 3.5 11.3 0.00 0.00 0.00 47 1017.2